Overview Statistics Trail Chart Weather Telemetry Raw packets
 

This is the latest recevied weather packets stored in our database for station/object KQ4WWD. If no packets are shown the sender has not sent any weather packets the latest 10 day(s).

<< 1 2 3 4 5 >>
Time Temp. Humidity Pressure Rain* Wind** Luminosity Snow
1788661957 27.78° C 88% 1012.5 hPa 0 mm - 0 W/m² -
1788661652 27.78° C 88% 1012.5 hPa 0 mm - 0 W/m² -
1788661347 28.33° C 88% 1012.5 hPa 0 mm - 0 W/m² -
1788661043 28.33° C 88% 1012.6 hPa 0 mm - 0 W/m² -
1788660742 28.33° C 88% 1012.7 hPa 0 mm - 0 W/m² -
1788660437 28.33° C 88% 1012.6 hPa 0 mm - 0 W/m² -
1788660131 28.33° C 88% 1012.8 hPa 0 mm - 0 W/m² -
1788659826 28.89° C 87% 1012.4 hPa 0 mm - 0 W/m² -
1788659525 28.89° C 87% 1012.6 hPa 0 mm - 0 W/m² -
1788659225 28.89° C 87% 1012.4 hPa 0 mm - 0 W/m² -
1788658921 28.89° C 87% 1012.6 hPa 0 mm - 0 W/m² -
1788658616 28.89° C 86% 1012.6 hPa 0 mm - 0 W/m² -
1788658311 28.89° C 86% 1012.3 hPa 0 mm - 0 W/m² -
1788658012 28.89° C 87% 1012.2 hPa 0 mm - 0 W/m² -
1788657712 28.33° C 87% 1012.2 hPa 0 mm - 0 W/m² -
1788657408 28.89° C 87% 1011.9 hPa 0 mm - 0 W/m² -
1788657108 28.89° C 87% 1012 hPa 0 mm - 0 W/m² -
1788656803 28.89° C 87% 1012 hPa 0 mm - 0 W/m² -
1788656500 28.89° C 87% 1012.1 hPa 0 mm - 0 W/m² -
1788656199 28.89° C 87% 1012.2 hPa 0 mm - 0 W/m² -
1788655898 29.44° C 86% 1012.1 hPa 0 mm - 0 W/m² -
1788655597 29.44° C 85% 1011.9 hPa 0 mm - 0 W/m² -
1788655293 30° C 85% 1011.9 hPa 0 mm - 0 W/m² -
1788654988 30° C 83% 1012 hPa 0 mm - 0 W/m² -
1788654684 30° C 82% 1012.1 hPa 0 mm - 0 W/m² -

* Rain latest hour (hover to see other rain measurements)
** Current wind speed in m/s (hover to see current wind gust speed)